This demonstration page uses our WeatherBlox Daily Observations layout. Learn more.

Left ArrowRight Arrow

Hourly Observations for August 10, 2017

Temp ( °F °C ) Dew Point ( °F °C ) Humidity (%) Winds ( mph kmh ) Pressure ( in mb ) Visibility ( mi km ) Precip ( " mm )
12:35 am 00:35 Mostly Clear with Nearby Thunderstorms 82 27.8 59 15 46 46 E 5 7 29.77 1008 10 16.0934 0 0
12:51 am 00:51 Mostly Cloudy with Nearby Thunderstorms 82 27.8 58 14.4 44 44 E 8 13 29.81 1009 10 16.0934 0 0
1:08 am 01:08 Mostly Cloudy 86 30 55 13 35 35 ENE 13 20 29.77 1008 10 16.0934 0 0
1:51 am 01:51 Mostly Clear 83 28.3 59 15 44 44 Calm 29.8 1009 10 16.0934 0 0
2:51 am 02:51 Clear 78 25.6 61 16.1 56 56 SW 3 6 29.82 1010 10 16.0934 0 0
3:51 am 03:51 Mostly Clear 77 25 60 15.6 56 56 NNW 3 6 29.82 1010 10 16.0934 0 0
4:51 am 04:51 Mostly Clear 76 24.4 62 16.7 62 62 NE 5 7 29.83 1010 10 16.0934 0 0
5:51 am 05:51 Partly Cloudy 75 23.9 60 15.6 60 60 NNW 7 11 29.86 1011 10 16.0934 0 0
6:51 am 06:51 Sunny 80 26.7 61 16.1 52 52 Calm 29.88 1012 10 16.0934 0 0
7:51 am 07:51 Mostly Cloudy 84 28.9 60 15.6 44 44 ESE 5 7 29.89 1012 10 16.0934 0 0
8:51 am 08:51 Mostly Cloudy 90 32.2 59 15 35 35 ESE 5 7 29.89 1012 10 16.0934 0 0
9:17 am 09:17 Mostly Cloudy with Nearby Thunderstorms 87 30.6 61 16.1 42 42 SSW 6 9 29.85 1011 10 16.0934 0 0
9:28 am 09:28 Partly Cloudy with Thunderstorms 87 30.6 59 15 39 39 ESE 9 15 29.85 1011 10 16.0934 0 0
9:51 am 09:51 Mostly Cloudy with Light Thunderstorms 86 30 61 16.1 43 43 SSW 6 9 29.91 1013 8 12.87472 0 0.0254
10:07 am 10:07 Mostly Cloudy with Light Rain 82 27.8 68 20 63 63 Calm 29.88 1012 10 16.0934 0 0.0254
10:51 am 10:51 Sunny 87 30.6 63 17.2 45 45 ESE 8 13 29.91 1013 10 16.0934 0 0.0254
11:51 am 11:51 Sunny 92 33.3 62 16.7 37 37 N 5 7 29.87 1012 10 16.0934 0 0
12:51 pm 12:51 Sunny 93 33.9 59 15 32 32 undefined N/A 29.84 1011 10 16.0934 0 0
1:51 pm 13:51 Sunny 96 35.6 59 15 29 29 undefined N/A 29.8 1009 10 16.0934 0 0
2:51 pm 14:51 Sunny 98 36.7 57 13.9 25 25 WNW 10 17 29.78 1008 10 16.0934 0 0
3:44 pm 15:44 Partly Cloudy with Thunderstorms 99 37 55 13 24 24 VRB 5 7 29.65 1004 10 16.0934 0 0
3:51 pm 15:51 Mostly Cloudy with Thunderstorms 99 37.2 56 13.3 24 24 ENE 13 20 29.76 1008 10 16.0934 0 0
4:12 pm 16:12 Mostly Cloudy with Nearby Thunderstorms 91 33 59 15 34 34 N 17 28 29.68 1005 10 16.0934 0 0
4:51 pm 16:51 Sunny with Nearby Thunderstorms 91 32.8 58 14.4 33 33 NNE 21 33 29.76 1008 10 16.0934 0 0
5:20 pm 17:20 Mostly Sunny 93 34 55 13 28 28 NE 18 30 29.68 1005 10 16.0934 0 0
5:51 pm 17:51 Sunny 92 33.3 56 13.3 30 30 NE 17 28 29.76 1008 10 16.0934 0 0
6:51 pm 18:51 Sunny 90 32.2 54 12.2 29 29 NNE 15 24 29.76 1008 10 16.0934 0 0
7:32 pm 19:32 Mostly Cloudy with Nearby Thunderstorms 84 29 57 14 40 40 SW 16 26 29.74 1007 10 16.0934 0 0
7:47 pm 19:47 Partly Cloudy 82 28 59 15 45 45 VRB 7 11 29.77 1008 10 16.0934 0 0
7:51 pm 19:51 Partly Cloudy with Thunderstorms 82 27.8 60 15.6 47 47 SW 8 13 29.82 1010 10 16.0934 0 0
8:11 pm 20:11 Mostly Clear 81 27.2 61 16.1 51 51 NNW 6 9 29.8 1009 10 16.0934 0 0
8:51 pm 20:51 Mostly Clear 84 28.9 59 15 43 43 NNE 7 11 29.83 1010 10 16.0934 0 0
9:51 pm 21:51 Clear 81 27.2 60 15.6 49 49 E 14 22 29.86 1011 10 16.0934 0 0
10:51 pm 22:51 Partly Cloudy 82 27.8 59 15 46 46 NE 12 19 29.88 1012 10 16.0934 0 0
11:51 pm 23:51 Partly Cloudy 79 26.1 59 15 50 50 W 5 7 29.87 1012 10 16.0934 0 0.0254

Powered by AerisWeather